Time,TemperatureF,DewpointF,PressureIn,WindDirection,WindDirectionDegrees,WindSpeedMPH,WindSpeedGustMPH,Humidity,HourlyPrecipIn,Conditions,Clouds,dailyrainin,SoftwareType,DateUTC
2013-04-08 00:00:00,67.6,62.3,30.04,East,84,0.0,0.0,83,0.00,,---,0.01,VWS V14.01,2013-04-08 04:00:00,
2013-04-08 00:01:00,67.6,62.3,30.04,East,84,0.0,0.0,83,0.00,,---,0.01,VWS V14.01,2013-04-08 04:01:00,
2013-04-08 00:02:00,67.4,62.1,30.03,East,84,0.0,0.0,83,0.00,,---,0.01,VWS V14.01,2013-04-08 04:02:00,
2013-04-08 00:05:00,67.4,62.4,30.03,East,84,0.0,0.0,84,0.00,,---,0.00,VWS V14.01,2013-04-08 04:05:00,
2013-04-08 00:10:00,67.3,62.6,30.03,East,84,0.0,0.0,85,0.00,,---,0.00,VWS V14.01,2013-04-08 04:10:00,
2013-04-08 00:15:00,67.1,62.5,30.03,East,84,0.0,0.0,85,0.00,,---,0.00,VWS V14.01,2013-04-08 04:15:00,
2013-04-08 00:20:00,66.9,62.2,30.03,East,84,0.0,0.0,85,0.00,,---,0.00,VWS V14.01,2013-04-08 04:20:00,
2013-04-08 00:26:00,66.8,62.5,30.03,East,84,0.0,0.0,86,0.00,,---,0.00,VWS V14.01,2013-04-08 04:26:00,
2013-04-08 00:31:00,66.6,62.3,30.03,East,84,0.0,0.0,86,0.00,,---,0.00,VWS V14.01,2013-04-08 04:31:00,
2013-04-08 00:36:00,66.4,62.4,30.03,East,84,0.0,0.0,87,0.00,,---,0.00,VWS V14.01,2013-04-08 04:36:00,
2013-04-08 00:42:00,66.3,62.6,30.03,East,84,0.0,0.0,88,0.00,,---,0.00,VWS V14.01,2013-04-08 04:42:00,
2013-04-08 00:47:00,66.1,62.5,30.03,East,84,0.0,0.0,88,0.00,,---,0.00,VWS V14.01,2013-04-08 04:47:00,
2013-04-08 00:52:00,66.0,62.3,30.03,East,84,0.0,0.0,88,0.00,,---,0.00,VWS V14.01,2013-04-08 04:52:00,
2013-04-08 00:57:00,65.8,62.5,30.03,East,84,0.0,0.0,89,0.00,,---,0.00,VWS V14.01,2013-04-08 04:57:00,
2013-04-08 01:03:00,65.6,62.3,30.02,East,84,0.0,0.0,89,0.00,,---,0.00,VWS V14.01,2013-04-08 05:03:00,
2013-04-08 01:08:00,65.5,62.2,30.02,East,84,0.0,0.0,89,0.00,,---,0.00,VWS V14.01,2013-04-08 05:08:00,
2013-04-08 01:13:00,65.3,62.3,30.02,East,84,0.0,0.0,90,0.00,,---,0.00,VWS V14.01,2013-04-08 05:13:00,
2013-04-08 01:18:00,65.3,62.6,30.02,East,84,0.0,0.0,91,0.00,,---,0.00,VWS V14.01,2013-04-08 05:18:00,
2013-04-08 01:23:00,65.2,62.5,30.02,East,84,0.0,0.0,91,0.00,,---,0.00,VWS V14.01,2013-04-08 05:23:00,
2013-04-08 01:29:00,65.0,62.6,30.02,East,84,0.0,0.0,92,0.00,,---,0.00,VWS V14.01,2013-04-08 05:29:00,
2013-04-08 01:34:00,65.0,62.6,30.02,East,84,0.0,0.0,92,0.00,,---,0.00,VWS V14.01,2013-04-08 05:34:00,
2013-04-08 01:39:00,64.8,62.7,30.02,East,84,0.0,0.0,93,0.00,,---,0.00,VWS V14.01,2013-04-08 05:39:00,
2013-04-08 01:44:00,64.5,62.4,30.02,East,84,0.0,0.0,93,0.00,,---,0.00,VWS V14.01,2013-04-08 05:44:00,
2013-04-08 01:49:00,64.3,62.2,30.01,East,84,0.0,0.0,93,0.00,,---,0.00,VWS V14.01,2013-04-08 05:49:00,
2013-04-08 01:55:00,64.3,62.5,30.01,East,84,0.0,0.0,94,0.00,,---,0.00,VWS V14.01,2013-04-08 05:55:00,
2013-04-08 02:00:00,64.2,62.4,30.01,East,84,0.0,0.0,94,0.00,,---,0.00,VWS V14.01,2013-04-08 06:00:00,
2013-04-08 02:05:00,64.2,62.4,30.01,East,84,0.0,0.0,94,0.00,,---,0.00,VWS V14.01,2013-04-08 06:05:00,
2013-04-08 02:10:00,64.0,62.5,30.01,East,84,0.0,0.0,95,0.00,,---,0.00,VWS V14.01,2013-04-08 06:10:00,
2013-04-08 02:15:00,64.0,62.5,30.01,East,84,0.0,0.0,95,0.00,,---,0.00,VWS V14.01,2013-04-08 06:15:00,
2013-04-08 02:20:00,64.0,62.8,30.00,East,84,0.0,0.0,96,0.00,,---,0.00,VWS V14.01,2013-04-08 06:20:00,
2013-04-08 02:26:00,64.0,62.8,30.00,East,84,0.0,0.0,96,0.00,,---,0.00,VWS V14.01,2013-04-08 06:26:00,
2013-04-08 02:31:00,64.0,62.8,30.00,East,84,0.0,0.0,96,0.00,,---,0.00,VWS V14.01,2013-04-08 06:31:00,
2013-04-08 02:37:00,63.9,62.7,30.00,East,84,0.0,0.0,96,0.00,,---,0.00,VWS V14.01,2013-04-08 06:37:00,
2013-04-08 02:43:00,63.7,62.5,30.00,East,84,0.0,0.0,96,0.00,,---,0.00,VWS V14.01,2013-04-08 06:43:00,
2013-04-08 02:48:00,63.5,62.3,30.00,East,84,0.0,0.0,96,0.00,,---,0.00,VWS V14.01,2013-04-08 06:48:00,
2013-04-08 02:54:00,63.4,62.2,30.00,East,84,0.0,0.0,96,0.00,,---,0.00,VWS V14.01,2013-04-08 06:54:00,
2013-04-08 02:59:00,63.4,62.5,30.00,East,84,0.0,0.0,97,0.00,,---,0.00,VWS V14.01,2013-04-08 06:59:00,
2013-04-08 03:04:00,63.2,62.3,30.00,East,84,0.0,0.0,97,0.00,,---,0.00,VWS V14.01,2013-04-08 07:04:00,
2013-04-08 03:09:00,63.1,62.2,30.00,East,84,0.0,0.0,97,0.00,,---,0.00,VWS V14.01,2013-04-08 07:09:00,
2013-04-08 03:15:00,63.1,62.2,30.00,East,84,0.0,1.0,97,0.00,,---,0.00,VWS V14.01,2013-04-08 07:15:00,
2013-04-08 03:20:00,63.1,62.2,30.00,East,84,0.0,1.0,97,0.00,,---,0.00,VWS V14.01,2013-04-08 07:20:00,
2013-04-08 03:25:00,63.1,62.5,30.00,East,84,0.0,1.0,98,0.00,,---,0.00,VWS V14.01,2013-04-08 07:25:00,
2013-04-08 03:30:00,63.1,62.5,30.00,East,84,0.0,1.0,98,0.00,,---,0.00,VWS V14.01,2013-04-08 07:30:00,
2013-04-08 03:35:00,62.9,62.3,30.00,East,84,0.0,0.0,98,0.00,,---,0.00,VWS V14.01,2013-04-08 07:35:00,
2013-04-08 03:41:00,62.9,62.3,30.00,East,84,0.0,0.0,98,0.00,,---,0.00,VWS V14.01,2013-04-08 07:41:00,
2013-04-08 03:47:00,62.9,62.3,29.99,East,84,0.0,0.0,98,0.00,,---,0.00,VWS V14.01,2013-04-08 07:47:00,
2013-04-08 03:52:00,62.9,62.3,29.99,East,84,0.0,0.0,98,0.00,,---,0.00,VWS V14.01,2013-04-08 07:52:00,
2013-04-08 03:57:00,62.9,62.3,29.99,East,84,0.0,0.0,98,0.00,,---,0.00,VWS V14.01,2013-04-08 07:57:00,
2013-04-08 04:03:00,62.7,62.1,29.99,East,84,0.0,0.0,98,0.00,,---,0.00,VWS V14.01,2013-04-08 08:03:00,
2013-04-08 04:09:00,62.7,62.1,29.99,East,84,0.0,0.0,98,0.00,,---,0.00,VWS V14.01,2013-04-08 08:09:00,
2013-04-08 04:14:00,62.6,62.0,29.99,East,84,0.0,0.0,98,0.00,,---,0.00,VWS V14.01,2013-04-08 08:14:00,
2013-04-08 04:19:00,62.4,61.8,29.99,East,84,0.0,0.0,98,0.00,,---,0.00,VWS V14.01,2013-04-08 08:19:00,
2013-04-08 04:25:00,62.4,62.1,29.99,East,84,0.0,0.0,99,0.00,,---,0.00,VWS V14.01,2013-04-08 08:25:00,
2013-04-08 04:30:00,62.3,61.7,29.99,East,84,0.0,0.0,98,0.00,,---,0.00,VWS V14.01,2013-04-08 08:30:00,
2013-04-08 04:36:00,62.1,61.8,29.99,East,84,0.0,0.0,99,0.00,,---,0.00,VWS V14.01,2013-04-08 08:36:00,
2013-04-08 04:41:00,62.0,61.7,29.99,East,84,0.0,0.0,99,0.00,,---,0.00,VWS V14.01,2013-04-08 08:41:00,
2013-04-08 04:46:00,61.8,61.5,29.98,East,84,0.0,0.0,99,0.00,,---,0.00,VWS V14.01,2013-04-08 08:46:00,
2013-04-08 04:52:00,61.8,61.5,29.98,East,84,0.0,0.0,99,0.00,,---,0.00,VWS V14.01,2013-04-08 08:52:00,
2013-04-08 04:57:00,61.6,61.3,29.98,East,84,0.0,0.0,99,0.00,,---,0.00,VWS V14.01,2013-04-08 08:57:00,
2013-04-08 05:02:00,61.5,61.2,29.98,East,84,0.0,0.0,99,0.00,,---,0.00,VWS V14.01,2013-04-08 09:02:00,
2013-04-08 05:07:00,61.5,61.2,29.98,East,84,0.0,0.0,99,0.00,,---,0.00,VWS V14.01,2013-04-08 09:07:00,
2013-04-08 05:12:00,61.5,61.2,29.98,East,84,0.0,0.0,99,0.00,,---,0.00,VWS V14.01,2013-04-08 09:12:00,
2013-04-08 05:18:00,61.5,61.5,29.99,East,84,0.0,0.0,100,0.00,,---,0.00,VWS V14.01,2013-04-08 09:18:00,
2013-04-08 05:23:00,61.6,61.6,29.99,East,84,0.0,0.0,100,0.00,,---,0.00,VWS V14.01,2013-04-08 09:23:00,
2013-04-08 05:28:00,61.8,61.8,29.99,East,84,0.0,0.0,100,0.00,,---,0.00,VWS V14.01,2013-04-08 09:28:00,
2013-04-08 05:34:00,61.8,61.8,29.99,East,84,0.0,0.0,100,0.00,,---,0.00,VWS V14.01,2013-04-08 09:34:00,
2013-04-08 05:40:00,61.6,61.6,29.99,East,84,0.0,0.0,100,0.00,,---,0.00,VWS V14.01,2013-04-08 09:40:00,
2013-04-08 05:45:00,61.6,61.6,29.99,East,84,0.0,0.0,100,0.00,,---,0.00,VWS V14.01,2013-04-08 09:45:00,
2013-04-08 05:50:00,61.6,61.6,29.99,East,84,0.0,0.0,100,0.00,,---,0.00,VWS V14.01,2013-04-08 09:50:00,
2013-04-08 05:55:00,61.6,61.6,29.99,East,84,0.0,0.0,100,0.00,,---,0.00,VWS V14.01,2013-04-08 09:55:00,
2013-04-08 06:00:00,61.6,61.6,29.99,East,84,0.0,0.0,100,0.00,,---,0.00,VWS V14.01,2013-04-08 10:00:00,
2013-04-08 06:06:00,61.6,61.6,29.99,East,84,0.0,0.0,100,0.00,,---,0.00,VWS V14.01,2013-04-08 10:06:00,
2013-04-08 06:12:00,61.5,61.5,29.99,East,84,0.0,0.0,100,0.00,,---,0.00,VWS V14.01,2013-04-08 10:12:00,
2013-04-08 06:17:00,61.5,61.5,29.99,East,84,0.0,0.0,100,0.00,,---,0.00,VWS V14.01,2013-04-08 10:17:00,
2013-04-08 06:22:00,61.5,61.5,29.99,East,84,0.0,0.0,100,0.00,,---,0.00,VWS V14.01,2013-04-08 10:22:00,
2013-04-08 06:27:00,61.3,61.3,29.99,East,84,0.0,0.0,100,0.00,,---,0.00,VWS V14.01,2013-04-08 10:27:00,
2013-04-08 06:32:00,61.3,61.3,30.00,East,84,0.0,0.0,100,0.00,,---,0.00,VWS V14.01,2013-04-08 10:32:00,
2013-04-08 06:38:00,61.2,61.2,30.00,East,84,0.0,0.0,100,0.00,,---,0.00,VWS V14.01,2013-04-08 10:38:00,
2013-04-08 06:43:00,61.2,61.2,30.00,East,84,0.0,0.0,100,0.00,,---,0.00,VWS V14.01,2013-04-08 10:43:00,
2013-04-08 06:48:00,61.0,61.0,30.00,East,84,0.0,0.0,100,0.00,,---,0.00,VWS V14.01,2013-04-08 10:48:00,
2013-04-08 06:54:00,60.9,60.9,30.00,East,84,0.0,0.0,100,0.00,,---,0.00,VWS V14.01,2013-04-08 10:54:00,
2013-04-08 07:00:00,60.9,60.9,30.00,East,84,0.0,0.0,100,0.00,,---,0.00,VWS V14.01,2013-04-08 11:00:00,
2013-04-08 07:05:00,60.7,60.7,30.00,East,84,0.0,0.0,100,0.00,,---,0.00,VWS V14.01,2013-04-08 11:05:00,
2013-04-08 07:10:00,60.7,60.7,30.00,East,84,0.0,0.0,100,0.00,,---,0.00,VWS V14.01,2013-04-08 11:10:00,
2013-04-08 07:15:00,60.9,60.9,30.00,East,84,0.0,0.0,100,0.00,,---,0.00,VWS V14.01,2013-04-08 11:15:00,
2013-04-08 07:21:00,60.9,60.9,30.01,East,84,0.0,0.0,100,0.00,,---,0.00,VWS V14.01,2013-04-08 11:21:00,
2013-04-08 07:26:00,60.7,60.7,30.01,East,84,0.0,0.0,100,0.00,,---,0.00,VWS V14.01,2013-04-08 11:26:00,
2013-04-08 07:31:00,60.7,60.7,30.01,East,84,0.0,0.0,100,0.00,,---,0.00,VWS V14.01,2013-04-08 11:31:00,
2013-04-08 07:37:00,60.9,60.9,30.02,East,84,0.0,0.0,100,0.00,,---,0.00,VWS V14.01,2013-04-08 11:37:00,
2013-04-08 07:42:00,61.2,61.2,30.02,East,84,0.0,0.0,100,0.00,,---,0.00,VWS V14.01,2013-04-08 11:42:00,
2013-04-08 07:47:00,61.6,61.6,30.02,East,84,0.0,0.0,100,0.00,,---,0.00,VWS V14.01,2013-04-08 11:47:00,
2013-04-08 07:53:00,62.1,62.1,30.02,East,84,0.0,0.0,100,0.00,,---,0.00,VWS V14.01,2013-04-08 11:53:00,
2013-04-08 07:58:00,62.7,62.7,30.02,East,84,0.0,0.0,100,0.00,,---,0.00,VWS V14.01,2013-04-08 11:58:00,
2013-04-08 08:03:00,63.4,63.4,30.02,East,85,0.0,0.0,100,0.00,,---,0.00,VWS V14.01,2013-04-08 12:03:00,
2013-04-08 08:08:00,64.3,64.3,30.02,East,84,0.0,0.0,100,0.00,,---,0.00,VWS V14.01,2013-04-08 12:08:00,
2013-04-08 08:14:00,65.2,65.2,30.02,East,85,0.0,0.0,100,0.00,,---,0.00,VWS V14.01,2013-04-08 12:14:00,
2013-04-08 08:19:00,65.8,65.8,30.03,East,84,0.0,0.0,100,0.00,,---,0.00,VWS V14.01,2013-04-08 12:19:00,
2013-04-08 08:24:00,66.6,66.6,30.03,East,84,0.0,0.0,100,0.00,,---,0.00,VWS V14.01,2013-04-08 12:24:00,
2013-04-08 08:29:00,67.3,67.3,30.03,East,84,0.0,2.0,100,0.00,,---,0.00,VWS V14.01,2013-04-08 12:29:00,
2013-04-08 08:34:00,67.9,67.9,30.03,East,84,0.0,0.0,100,0.00,,---,0.00,VWS V14.01,2013-04-08 12:34:00,
2013-04-08 08:40:00,68.3,68.3,30.03,East,84,0.0,0.0,100,0.00,,---,0.00,VWS V14.01,2013-04-08 12:40:00,
2013-04-08 08:45:00,68.8,68.8,30.03,East,84,2.0,2.0,100,0.00,,---,0.00,VWS V14.01,2013-04-08 12:45:00,
2013-04-08 08:50:00,69.3,69.3,30.03,East,84,2.0,3.0,100,0.00,,---,0.00,VWS V14.01,2013-04-08 12:50:00,
2013-04-08 08:55:00,69.8,69.5,30.03,East,84,1.0,3.0,99,0.00,,---,0.00,VWS V14.01,2013-04-08 12:55:00,
2013-04-08 09:01:00,70.6,69.4,30.03,East,84,0.0,3.0,96,0.00,,---,0.00,VWS V14.01,2013-04-08 13:01:00,
2013-04-08 09:07:00,71.6,68.5,30.03,East,84,2.0,4.0,90,0.00,,---,0.00,VWS V14.01,2013-04-08 13:07:00,
2013-04-08 09:12:00,72.7,67.2,30.03,East,85,3.0,5.0,83,0.00,,---,0.00,VWS V14.01,2013-04-08 13:12:00,
2013-04-08 09:18:00,73.9,65.5,30.04,East,85,2.0,5.0,75,0.00,,---,0.00,VWS V14.01,2013-04-08 13:18:00,
2013-04-08 09:23:00,74.7,64.3,30.04,East,89,7.0,7.0,70,0.00,,---,0.00,VWS V14.01,2013-04-08 13:23:00,
2013-04-08 09:28:00,75.6,63.0,30.04,East,90,2.0,7.0,65,0.00,,---,0.00,VWS V14.01,2013-04-08 13:28:00,
2013-04-08 09:34:00,76.3,63.2,30.04,East,99,0.0,2.0,64,0.00,,---,0.00,VWS V14.01,2013-04-08 13:34:00,
2013-04-08 09:39:00,76.8,63.3,30.04,East,99,0.0,3.0,63,0.00,,---,0.00,VWS V14.01,2013-04-08 13:39:00,
2013-04-08 09:44:00,77.4,62.9,30.04,East,92,3.0,5.0,61,0.00,,---,0.00,VWS V14.01,2013-04-08 13:44:00,
2013-04-08 09:50:00,77.9,63.4,30.04,East,92,0.0,5.0,61,0.00,,---,0.00,VWS V14.01,2013-04-08 13:50:00,
2013-04-08 09:55:00,78.3,62.3,30.04,East,93,1.0,5.0,58,0.00,,---,0.00,VWS V14.01,2013-04-08 13:55:00,
2013-04-08 10:00:00,78.6,61.6,30.04,ENE,70,3.0,6.0,56,0.00,,---,0.00,VWS V14.01,2013-04-08 14:00:00,
2013-04-08 10:05:00,79.0,62.5,30.05,ENE,74,4.0,4.0,57,0.00,,---,0.00,VWS V14.01,2013-04-08 14:05:00,
2013-04-08 10:11:00,79.2,62.2,30.05,ENE,74,4.0,4.0,56,0.00,,---,0.00,VWS V14.01,2013-04-08 14:11:00,
2013-04-08 10:16:00,79.6,62.0,30.05,East,86,7.0,7.0,55,0.00,,---,0.00,VWS V14.01,2013-04-08 14:16:00,
2013-04-08 10:21:00,79.8,61.2,30.05,East,90,0.0,7.0,53,0.00,,---,0.00,VWS V14.01,2013-04-08 14:21:00,
2013-04-08 10:27:00,80.1,62.0,30.05,East,91,4.0,7.0,54,0.00,,---,0.00,VWS V14.01,2013-04-08 14:27:00,
2013-04-08 10:32:00,80.3,61.6,30.05,East,90,4.0,7.0,53,0.00,,---,0.00,VWS V14.01,2013-04-08 14:32:00,
2013-04-08 10:37:00,80.7,61.5,30.05,East,90,2.0,3.0,52,0.00,,---,0.00,VWS V14.01,2013-04-08 14:37:00,
2013-04-08 10:42:00,80.9,61.1,30.05,East,89,0.0,4.0,51,0.00,,---,0.00,VWS V14.01,2013-04-08 14:42:00,
2013-04-08 10:47:00,81.1,61.3,30.06,East,89,2.0,4.0,51,0.00,,---,0.00,VWS V14.01,2013-04-08 14:47:00,
2013-04-08 10:52:00,81.2,60.2,30.06,East,89,1.0,5.0,49,0.00,,---,0.00,VWS V14.01,2013-04-08 14:52:00,
2013-04-08 10:58:00,81.4,61.5,30.06,East,89,3.0,5.0,51,0.00,,---,0.00,VWS V14.01,2013-04-08 14:58:00,
2013-04-08 11:03:00,81.6,61.2,30.06,East,83,6.0,6.0,50,0.00,,---,0.00,VWS V14.01,2013-04-08 15:03:00,
2013-04-08 11:08:00,81.6,60.6,30.06,ENE,71,3.0,7.0,49,0.00,,---,0.00,VWS V14.01,2013-04-08 15:08:00,
2013-04-08 11:15:00,81.8,61.9,30.06,East,87,4.0,7.0,51,0.00,,---,0.00,VWS V14.01,2013-04-08 15:15:00,
2013-04-08 11:20:00,81.6,61.7,30.06,East,87,0.0,7.0,51,0.00,,---,0.00,VWS V14.01,2013-04-08 15:20:00,
2013-04-08 11:25:00,81.6,63.4,30.06,East,84,5.0,7.0,54,0.00,,---,0.00,VWS V14.01,2013-04-08 15:25:00,
2013-04-08 11:31:00,81.8,63.0,30.06,East,92,3.0,7.0,53,0.00,,---,0.00,VWS V14.01,2013-04-08 15:31:00,
2013-04-08 11:36:00,82.0,63.7,30.06,East,101,3.0,6.0,54,0.00,,---,0.00,VWS V14.01,2013-04-08 15:36:00,
2013-04-08 11:42:00,82.2,63.4,30.06,ESE,115,6.0,9.0,53,0.00,,---,0.00,VWS V14.01,2013-04-08 15:42:00,
2013-04-08 11:47:00,82.2,63.9,30.06,ESE,123,3.0,9.0,54,0.00,,---,0.00,VWS V14.01,2013-04-08 15:47:00,
2013-04-08 11:52:00,81.8,63.5,30.06,East,98,2.0,9.0,54,0.00,,---,0.00,VWS V14.01,2013-04-08 15:52:00,
2013-04-08 11:58:00,82.0,64.3,30.06,NE,38,11.0,11.0,55,0.00,,---,0.00,VWS V14.01,2013-04-08 15:58:00,
2013-04-08 12:03:00,82.2,63.4,30.06,East,90,3.0,3.0,53,0.00,,---,0.00,VWS V14.01,2013-04-08 16:03:00,
2013-04-08 12:08:00,81.8,64.1,30.06,ESE,119,4.0,10.0,55,0.00,,---,0.00,VWS V14.01,2013-04-08 16:08:00,
2013-04-08 12:14:00,81.4,63.2,30.06,ENE,57,3.0,10.0,54,0.00,,---,0.00,VWS V14.01,2013-04-08 16:14:00,
2013-04-08 12:19:00,81.2,63.0,30.06,ESE,113,4.0,10.0,54,0.00,,---,0.00,VWS V14.01,2013-04-08 16:19:00,
2013-04-08 12:24:00,80.9,63.2,30.06,ESE,105,4.0,10.0,55,0.00,,---,0.00,VWS V14.01,2013-04-08 16:24:00,
2013-04-08 12:30:00,80.1,63.0,30.06,ESE,115,5.0,10.0,56,0.00,,---,0.00,VWS V14.01,2013-04-08 16:30:00,
2013-04-08 12:35:00,79.9,62.8,30.05,ENE,67,6.0,9.0,56,0.00,,---,0.00,VWS V14.01,2013-04-08 16:35:00,
2013-04-08 12:40:00,80.3,63.2,30.05,ESE,105,4.0,9.0,56,0.00,,---,0.00,VWS V14.01,2013-04-08 16:40:00,
2013-04-08 12:46:00,80.5,62.3,30.05,ESE,112,1.0,9.0,54,0.00,,---,0.00,VWS V14.01,2013-04-08 16:46:00,
2013-04-08 12:51:00,81.1,63.9,30.05,ESE,105,2.0,9.0,56,0.00,,---,0.00,VWS V14.01,2013-04-08 16:51:00,
2013-04-08 12:56:00,81.6,62.8,30.05,ENE,71,4.0,9.0,53,0.00,,---,0.00,VWS V14.01,2013-04-08 16:56:00,
2013-04-08 13:02:00,81.6,63.4,30.06,East,98,2.0,9.0,54,0.00,,---,0.00,VWS V14.01,2013-04-08 17:02:00,
2013-04-08 13:07:00,81.8,62.5,30.06,ESE,117,2.0,7.0,52,0.00,,---,0.00,VWS V14.01,2013-04-08 17:07:00,
2013-04-08 13:12:00,82.6,63.8,30.06,SE,142,5.0,7.0,53,0.00,,---,0.00,VWS V14.01,2013-04-08 17:12:00,
2013-04-08 13:17:00,83.2,62.7,30.05,ESE,107,1.0,8.0,50,0.00,,---,0.00,VWS V14.01,2013-04-08 17:17:00,
2013-04-08 13:23:00,83.8,62.0,30.05,ESE,109,4.0,8.0,48,0.00,,---,0.00,VWS V14.01,2013-04-08 17:23:00,
2013-04-08 13:28:00,83.4,61.1,30.05,ENE,69,5.0,8.0,47,0.00,,---,0.00,VWS V14.01,2013-04-08 17:28:00,
2013-04-08 13:33:00,83.2,61.5,30.04,NE,45,3.0,4.0,48,0.00,,---,0.00,VWS V14.01,2013-04-08 17:33:00,
2013-04-08 13:39:00,83.0,61.3,30.04,NNE,32,5.0,7.0,48,0.00,,---,0.00,VWS V14.01,2013-04-08 17:39:00,
2013-04-08 13:45:00,83.4,61.7,30.04,NE,54,2.0,8.0,48,0.00,,---,0.00,VWS V14.01,2013-04-08 17:45:00,
2013-04-08 13:51:00,84.0,61.6,30.03,ESE,117,3.0,12.0,47,0.00,,---,0.00,VWS V14.01,2013-04-08 17:51:00,
2013-04-08 13:56:00,83.8,62.6,30.03,East,89,2.0,12.0,49,0.00,,---,0.00,VWS V14.01,2013-04-08 17:56:00,
2013-04-08 14:02:00,83.8,62.6,30.02,NNW,348,1.0,12.0,49,0.00,,---,0.00,VWS V14.01,2013-04-08 18:02:00,
2013-04-08 14:07:00,83.8,60.8,30.02,ESE,109,2.0,9.0,46,0.00,,---,0.00,VWS V14.01,2013-04-08 18:07:00,
2013-04-08 14:13:00,83.2,59.7,30.02,SE,132,6.0,9.0,45,0.00,,---,0.00,VWS V14.01,2013-04-08 18:13:00,
2013-04-08 14:18:00,83.2,59.0,30.02,ENE,73,6.0,9.0,44,0.00,,---,0.00,VWS V14.01,2013-04-08 18:18:00,
2013-04-08 14:23:00,83.0,58.9,30.02,ENE,60,2.0,9.0,44,0.00,,---,0.00,VWS V14.01,2013-04-08 18:23:00,
2013-04-08 14:28:00,83.6,58.8,30.02,East,90,4.0,11.0,43,0.00,,---,0.00,VWS V14.01,2013-04-08 18:28:00,
2013-04-08 14:34:00,83.8,60.2,30.02,East,98,5.0,5.0,45,0.00,,---,0.00,VWS V14.01,2013-04-08 18:34:00,
2013-04-08 14:40:00,83.8,56.2,30.02,East,95,1.0,6.0,39,0.00,,---,0.00,VWS V14.01,2013-04-08 18:40:00,
2013-04-08 14:45:00,84.1,55.0,30.02,ENE,67,3.0,7.0,37,0.00,,---,0.00,VWS V14.01,2013-04-08 18:45:00,
2013-04-08 14:50:00,84.3,54.5,30.01,ENE,58,5.0,7.0,36,0.00,,---,0.00,VWS V14.01,2013-04-08 18:50:00,
2013-04-08 14:56:00,84.5,53.9,30.01,ENE,63,4.0,9.0,35,0.00,,---,0.00,VWS V14.01,2013-04-08 18:56:00,
2013-04-08 15:01:00,84.7,57.0,30.01,ESE,107,2.0,9.0,39,0.00,,---,0.00,VWS V14.01,2013-04-08 19:01:00,
2013-04-08 15:07:00,84.7,57.7,30.01,East,88,7.0,7.0,40,0.00,,---,0.00,VWS V14.01,2013-04-08 19:07:00,
2013-04-08 15:12:00,84.5,56.8,30.01,East,88,6.0,9.0,39,0.00,,---,0.00,VWS V14.01,2013-04-08 19:12:00,
2013-04-08 15:17:00,84.3,58.7,30.00,NE,55,6.0,9.0,42,0.00,,---,0.00,VWS V14.01,2013-04-08 19:17:00,
2013-04-08 15:22:00,84.3,58.7,30.00,ESE,109,5.0,10.0,42,0.00,,---,0.00,VWS V14.01,2013-04-08 19:22:00,
2013-04-08 15:27:00,84.3,58.7,30.00,ENE,76,2.0,10.0,42,0.00,,---,0.00,VWS V14.01,2013-04-08 19:27:00,
2013-04-08 15:32:00,84.1,59.2,30.00,ESE,103,4.0,10.0,43,0.00,,---,0.00,VWS V14.01,2013-04-08 19:32:00,
2013-04-08 15:38:00,84.0,59.8,30.00,East,86,4.0,6.0,44,0.00,,---,0.00,VWS V14.01,2013-04-08 19:38:00,
2013-04-08 15:43:00,84.0,61.0,30.00,ENE,69,9.0,9.0,46,0.00,,---,0.00,VWS V14.01,2013-04-08 19:43:00,
2013-04-08 15:48:00,83.8,60.8,30.00,East,93,3.0,10.0,46,0.00,,---,0.00,VWS V14.01,2013-04-08 19:48:00,
2013-04-08 15:53:00,83.2,60.9,30.00,East,101,4.0,10.0,47,0.00,,---,0.00,VWS V14.01,2013-04-08 19:53:00,
2013-04-08 15:58:00,82.8,61.7,30.00,East,82,7.0,10.0,49,0.00,,---,0.00,VWS V14.01,2013-04-08 19:58:00,
2013-04-08 16:04:00,82.4,61.9,30.00,NE,53,3.0,8.0,50,0.00,,---,0.00,VWS V14.01,2013-04-08 20:04:00,
2013-04-08 16:09:00,82.4,60.8,30.00,NE,40,4.0,9.0,48,0.00,,---,0.00,VWS V14.01,2013-04-08 20:09:00,
2013-04-08 16:14:00,82.6,60.3,30.00,East,83,5.0,9.0,47,0.00,,---,0.00,VWS V14.01,2013-04-08 20:14:00,
2013-04-08 16:20:00,82.4,60.8,30.00,NE,55,7.0,10.0,48,0.00,,---,0.00,VWS V14.01,2013-04-08 20:20:00,
2013-04-08 16:25:00,82.6,60.3,30.00,ENE,71,6.0,10.0,47,0.00,,---,0.00,VWS V14.01,2013-04-08 20:25:00,
2013-04-08 16:30:00,82.8,61.7,30.00,ENE,70,3.0,10.0,49,0.00,,---,0.00,VWS V14.01,2013-04-08 20:30:00,
2013-04-08 16:35:00,83.0,61.3,30.00,ENE,76,2.0,7.0,48,0.00,,---,0.00,VWS V14.01,2013-04-08 20:35:00,
2013-04-08 16:41:00,82.8,61.7,30.00,ESE,106,4.0,7.0,49,0.00,,---,0.00,VWS V14.01,2013-04-08 20:41:00,
2013-04-08 16:46:00,82.6,61.5,30.00,East,83,5.0,8.0,49,0.00,,---,0.00,VWS V14.01,2013-04-08 20:46:00,
2013-04-08 16:52:00,82.6,62.1,30.00,East,95,2.0,8.0,50,0.00,,---,0.00,VWS V14.01,2013-04-08 20:52:00,
2013-04-08 16:57:00,82.6,61.5,30.00,East,92,7.0,8.0,49,0.00,,---,0.00,VWS V14.01,2013-04-08 20:57:00,
2013-04-08 17:02:00,82.4,60.8,29.99,ESE,120,7.0,9.0,48,0.00,,---,0.00,VWS V14.01,2013-04-08 21:02:00,
2013-04-08 17:07:00,82.0,61.5,29.99,ENE,76,6.0,8.0,50,0.00,,---,0.00,VWS V14.01,2013-04-08 21:07:00,
2013-04-08 17:13:00,81.8,61.9,29.99,ESE,111,3.0,8.0,51,0.00,,---,0.00,VWS V14.01,2013-04-08 21:13:00,
2013-04-08 17:18:00,81.8,61.4,29.99,East,88,5.0,8.0,50,0.00,,---,0.00,VWS V14.01,2013-04-08 21:18:00,
2013-04-08 17:23:00,81.4,60.4,29.99,East,89,3.0,10.0,49,0.00,,---,0.00,VWS V14.01,2013-04-08 21:23:00,
2013-04-08 17:28:00,81.4,61.0,29.99,ESE,111,4.0,10.0,50,0.00,,---,0.00,VWS V14.01,2013-04-08 21:28:00,
2013-04-08 17:34:00,81.2,60.8,30.00,ESE,108,3.0,5.0,50,0.00,,---,0.00,VWS V14.01,2013-04-08 21:34:00,
2013-04-08 17:39:00,81.1,60.2,30.00,East,96,5.0,10.0,49,0.00,,---,0.00,VWS V14.01,2013-04-08 21:39:00,
2013-04-08 17:45:00,81.2,59.1,30.00,East,90,6.0,10.0,47,0.00,,---,0.00,VWS V14.01,2013-04-08 21:45:00,
2013-04-08 17:50:00,81.2,59.7,30.00,East,84,4.0,10.0,48,0.00,,---,0.00,VWS V14.01,2013-04-08 21:50:00,
2013-04-08 17:55:00,80.9,59.4,30.00,East,98,6.0,10.0,48,0.00,,---,0.00,VWS V14.01,2013-04-08 21:55:00,
2013-04-08 18:00:00,80.7,59.2,30.00,ENE,75,6.0,10.0,48,0.00,,---,0.00,VWS V14.01,2013-04-08 22:00:00,
2013-04-08 18:06:00,80.3,59.4,30.00,ENE,71,3.0,6.0,49,0.00,,---,0.00,VWS V14.01,2013-04-08 22:06:00,
2013-04-08 18:11:00,80.1,59.8,30.00,East,97,2.0,9.0,50,0.00,,---,0.00,VWS V14.01,2013-04-08 22:11:00,
2013-04-08 18:17:00,79.8,59.5,30.00,East,101,9.0,9.0,50,0.00,,---,0.00,VWS V14.01,2013-04-08 22:17:00,
2013-04-08 18:23:00,79.6,60.4,30.00,East,81,2.0,9.0,52,0.00,,---,0.00,VWS V14.01,2013-04-08 22:23:00,
2013-04-08 18:28:00,79.2,60.1,30.00,ENE,74,4.0,9.0,52,0.00,,---,0.00,VWS V14.01,2013-04-08 22:28:00,
2013-04-08 18:33:00,79.0,61.0,30.00,ENE,67,6.0,6.0,54,0.00,,---,0.00,VWS V14.01,2013-04-08 22:33:00,
2013-04-08 18:38:00,78.6,61.1,30.00,East,99,6.0,11.0,55,0.00,,---,0.00,VWS V14.01,2013-04-08 22:38:00,
2013-04-08 18:44:00,78.5,62.0,30.00,East,101,6.0,11.0,57,0.00,,---,0.00,VWS V14.01,2013-04-08 22:44:00,
2013-04-08 18:49:00,77.9,61.5,30.01,NE,52,4.0,13.0,57,0.00,,---,0.00,VWS V14.01,2013-04-08 22:49:00,
2013-04-08 18:55:00,77.7,62.2,30.01,ENE,78,5.0,13.0,59,0.00,,---,0.00,VWS V14.01,2013-04-08 22:55:00,
2013-04-08 19:00:00,77.4,61.5,30.01,NE,55,5.0,13.0,58,0.00,,---,0.00,VWS V14.01,2013-04-08 23:00:00,
2013-04-08 19:05:00,77.0,60.6,30.02,ENE,77,4.0,7.0,57,0.00,,---,0.00,VWS V14.01,2013-04-08 23:05:00,
2013-04-08 19:11:00,77.0,61.6,30.02,East,90,4.0,7.0,59,0.00,,---,0.00,VWS V14.01,2013-04-08 23:11:00,
2013-04-08 19:17:00,76.7,61.3,30.02,ENE,71,2.0,7.0,59,0.00,,---,0.00,VWS V14.01,2013-04-08 23:17:00,
2013-04-08 19:22:00,76.3,60.9,30.02,ENE,73,5.0,7.0,59,0.00,,---,0.00,VWS V14.01,2013-04-08 23:22:00,
2013-04-08 19:27:00,76.1,61.2,30.02,ENE,72,3.0,7.0,60,0.00,,---,0.00,VWS V14.01,2013-04-08 23:27:00,
2013-04-08 19:32:00,76.0,61.6,30.02,ENE,74,1.0,7.0,61,0.00,,---,0.00,VWS V14.01,2013-04-08 23:32:00,
2013-04-08 19:37:00,75.8,61.9,30.02,ENE,66,3.0,6.0,62,0.00,,---,0.00,VWS V14.01,2013-04-08 23:37:00,
2013-04-08 19:43:00,75.4,61.9,30.02,ENE,65,1.0,6.0,63,0.00,,---,0.00,VWS V14.01,2013-04-08 23:43:00,
2013-04-08 19:48:00,75.3,62.3,30.02,ENE,67,2.0,6.0,64,0.00,,---,0.00,VWS V14.01,2013-04-08 23:48:00,
2013-04-08 19:54:00,75.1,62.5,30.02,ENE,67,7.0,7.0,65,0.00,,---,0.00,VWS V14.01,2013-04-08 23:54:00,
2013-04-08 19:59:00,74.9,62.3,30.02,ENE,68,3.0,7.0,65,0.00,,---,0.00,VWS V14.01,2013-04-08 23:59:00,
2013-04-08 20:04:00,74.7,62.6,30.02,ENE,65,1.0,4.0,66,0.00,,---,0.00,VWS V14.01,2013-04-09 00:04:00,
2013-04-08 20:10:00,74.6,62.9,30.02,ENE,62,8.0,8.0,67,0.00,,---,0.00,VWS V14.01,2013-04-09 00:10:00,
2013-04-08 20:15:00,74.4,62.7,30.02,East,90,2.0,8.0,67,0.00,,---,0.00,VWS V14.01,2013-04-09 00:15:00,
2013-04-08 20:20:00,74.4,62.7,30.02,ENE,69,4.0,8.0,67,0.00,,---,0.00,VWS V14.01,2013-04-09 00:20:00,
2013-04-08 20:26:00,74.2,63.0,30.02,ENE,69,1.0,8.0,68,0.00,,---,0.00,VWS V14.01,2013-04-09 00:26:00,
2013-04-08 20:31:00,74.2,63.0,30.02,ENE,69,0.0,8.0,68,0.00,,---,0.00,VWS V14.01,2013-04-09 00:31:00,
2013-04-08 20:36:00,74.0,63.2,30.02,ENE,68,0.0,5.0,69,0.00,,---,0.00,VWS V14.01,2013-04-09 00:36:00,
2013-04-08 20:42:00,74.0,63.2,30.02,ENE,69,3.0,5.0,69,0.00,,---,0.00,VWS V14.01,2013-04-09 00:42:00,
2013-04-08 20:47:00,73.9,63.1,30.03,ENE,70,2.0,5.0,69,0.00,,---,0.00,VWS V14.01,2013-04-09 00:47:00,
2013-04-08 20:52:00,73.9,63.5,30.03,ENE,70,2.0,5.0,70,0.00,,---,0.00,VWS V14.01,2013-04-09 00:52:00,
2013-04-08 20:57:00,73.7,63.3,30.03,ENE,70,3.0,5.0,70,0.00,,---,0.00,VWS V14.01,2013-04-09 00:57:00,
2013-04-08 21:03:00,73.7,63.3,30.03,ENE,70,3.0,6.0,70,0.00,,---,0.00,VWS V14.01,2013-04-09 01:03:00,
2013-04-08 21:08:00,73.7,63.7,30.03,ENE,70,1.0,4.0,71,0.00,,---,0.00,VWS V14.01,2013-04-09 01:08:00,
2013-04-08 21:13:00,73.7,63.7,30.03,ENE,68,3.0,4.0,71,0.00,,---,0.00,VWS V14.01,2013-04-09 01:13:00,
2013-04-08 21:18:00,73.5,63.5,30.03,ENE,69,1.0,5.0,71,0.00,,---,0.00,VWS V14.01,2013-04-09 01:18:00,
2013-04-08 21:24:00,73.5,63.5,30.03,ENE,69,0.0,7.0,71,0.00,,---,0.00,VWS V14.01,2013-04-09 01:24:00,
2013-04-08 21:30:00,73.3,62.9,30.03,ENE,69,2.0,7.0,70,0.00,,---,0.00,VWS V14.01,2013-04-09 01:30:00,
2013-04-08 21:35:00,73.3,62.9,30.05,ENE,69,2.0,4.0,70,0.00,,---,0.00,VWS V14.01,2013-04-09 01:35:00,
2013-04-08 21:40:00,73.3,62.9,30.05,ENE,70,1.0,6.0,70,0.00,,---,0.00,VWS V14.01,2013-04-09 01:40:00,
2013-04-08 21:45:00,73.3,62.9,30.05,ENE,70,2.0,6.0,70,0.00,,---,0.00,VWS V14.01,2013-04-09 01:45:00,
2013-04-08 21:50:00,73.2,62.8,30.05,ENE,70,1.0,6.0,70,0.00,,---,0.00,VWS V14.01,2013-04-09 01:50:00,
2013-04-08 21:55:00,73.2,62.8,30.05,ENE,69,0.0,6.0,70,0.00,,---,0.00,VWS V14.01,2013-04-09 01:55:00,
2013-04-08 22:01:00,73.0,62.7,30.05,ENE,70,0.0,6.0,70,0.00,,---,0.00,VWS V14.01,2013-04-09 02:01:00,
2013-04-08 22:07:00,73.0,62.7,30.05,ENE,70,0.0,1.0,70,0.00,,---,0.00,VWS V14.01,2013-04-09 02:07:00,
2013-04-08 22:12:00,72.8,62.9,30.05,ENE,70,1.0,2.0,71,0.00,,---,0.00,VWS V14.01,2013-04-09 02:12:00,
2013-04-08 22:17:00,72.7,62.8,30.05,ENE,70,1.0,2.0,71,0.00,,---,0.00,VWS V14.01,2013-04-09 02:17:00,
2013-04-08 22:22:00,72.5,62.6,30.05,ENE,70,2.0,3.0,71,0.00,,---,0.00,VWS V14.01,2013-04-09 02:22:00,
2013-04-08 22:27:00,72.5,62.6,30.05,ENE,70,2.0,3.0,71,0.00,,---,0.00,VWS V14.01,2013-04-09 02:27:00,
2013-04-08 22:32:00,72.5,62.6,30.05,ENE,70,0.0,3.0,71,0.00,,---,0.00,VWS V14.01,2013-04-09 02:32:00,
2013-04-08 22:37:00,72.3,62.8,30.05,ENE,70,2.0,2.0,72,0.00,,---,0.00,VWS V14.01,2013-04-09 02:37:00,
2013-04-08 22:42:00,72.3,62.8,30.05,ENE,70,0.0,2.0,72,0.00,,---,0.00,VWS V14.01,2013-04-09 02:42:00,
2013-04-08 22:48:00,72.1,62.6,30.05,ENE,70,0.0,2.0,72,0.00,,---,0.00,VWS V14.01,2013-04-09 02:48:00,
2013-04-08 22:53:00,72.1,63.0,30.05,ENE,70,0.0,2.0,73,0.00,,---,0.00,VWS V14.01,2013-04-09 02:53:00,
2013-04-08 22:59:00,72.0,62.9,30.05,ENE,70,0.0,2.0,73,0.00,,---,0.00,VWS V14.01,2013-04-09 02:59:00,
2013-04-08 23:04:00,72.0,63.3,30.06,ENE,70,0.0,1.0,74,0.00,,---,0.00,VWS V14.01,2013-04-09 03:04:00,
2013-04-08 23:10:00,72.0,63.3,30.06,ENE,70,0.0,1.0,74,0.00,,---,0.00,VWS V14.01,2013-04-09 03:10:00,
2013-04-08 23:15:00,72.0,63.3,30.06,ENE,70,0.0,2.0,74,0.00,,---,0.00,VWS V14.01,2013-04-09 03:15:00,
2013-04-08 23:20:00,71.8,63.5,30.06,ENE,70,1.0,2.0,75,0.00,,---,0.00,VWS V14.01,2013-04-09 03:20:00,
2013-04-08 23:26:00,71.8,63.5,30.06,ENE,70,1.0,2.0,75,0.00,,---,0.00,VWS V14.01,2013-04-09 03:26:00,
2013-04-08 23:31:00,71.6,63.3,30.06,ENE,70,1.0,2.0,75,0.00,,---,0.00,VWS V14.01,2013-04-09 03:31:00,
2013-04-08 23:37:00,71.6,63.6,30.06,ENE,70,0.0,1.0,76,0.00,,---,0.00,VWS V14.01,2013-04-09 03:37:00,
2013-04-08 23:42:00,71.6,63.6,30.06,ENE,70,0.0,1.0,76,0.00,,---,0.00,VWS V14.01,2013-04-09 03:42:00,
2013-04-08 23:48:00,71.5,63.9,30.06,ENE,70,0.0,1.0,77,0.00,,---,0.00,VWS V14.01,2013-04-09 03:48:00,
2013-04-08 23:53:00,71.5,63.9,30.06,ENE,70,0.0,1.0,77,0.00,,---,0.00,VWS V14.01,2013-04-09 03:53:00,
2013-04-08 23:59:00,71.3,64.1,30.06,ENE,70,0.0,1.0,78,0.00,,---,0.00,VWS V14.01,2013-04-09 03:59:00,